Time,TemperatureF,DewpointF,PressureIn,WindDirection,WindDirectionDegrees,WindSpeedMPH,WindSpeedGustMPH,Humidity,HourlyPrecipIn,Conditions,Clouds,dailyrainin,SoftwareType,DateUTC
2013-01-28 00:03:00,45.9,36.7,30.23,NNW,344,5.0,9.0,70,0.00,,,0.00,meteohub,2013-01-28 08:03:00,
2013-01-28 00:08:00,45.9,36.7,30.23,NW,325,4.0,9.0,70,0.00,,,0.00,meteohub,2013-01-28 08:08:00,
2013-01-28 00:13:00,45.9,37.0,30.23,North,359,2.0,9.0,71,0.00,,,0.00,meteohub,2013-01-28 08:13:00,
2013-01-28 00:18:00,45.7,36.9,30.23,NNW,345,2.0,9.0,71,0.00,,,0.00,meteohub,2013-01-28 08:18:00,
2013-01-28 00:23:00,45.3,36.9,30.23,NNW,348,1.0,7.0,72,0.00,,,0.00,meteohub,2013-01-28 08:23:00,
2013-01-28 00:28:00,44.8,36.7,30.23,North,349,2.0,6.0,73,0.00,,,0.00,meteohub,2013-01-28 08:28:00,
2013-01-28 00:33:00,44.4,36.7,30.23,North,349,0.0,4.0,74,0.00,,,0.00,meteohub,2013-01-28 08:33:00,
2013-01-28 00:38:00,44.2,36.9,30.22,North,354,3.0,3.0,75,0.00,,,0.00,meteohub,2013-01-28 08:38:00,
2013-01-28 00:43:00,44.2,36.9,30.22,North,354,3.0,5.0,75,0.00,,,0.00,meteohub,2013-01-28 08:43:00,
2013-01-28 00:48:00,44.1,37.0,30.22,North,354,2.0,5.0,76,0.00,,,0.00,meteohub,2013-01-28 08:48:00,
2013-01-28 00:53:00,43.9,36.9,30.23,North,354,1.0,5.0,76,0.00,,,0.00,meteohub,2013-01-28 08:53:00,
2013-01-28 00:58:00,43.5,36.5,30.23,North,8,2.0,3.0,76,0.00,,,0.00,meteohub,2013-01-28 08:58:00,
2013-01-28 01:04:00,43.5,36.9,30.23,North,4,2.0,4.0,77,0.00,,,0.00,meteohub,2013-01-28 09:04:00,
2013-01-28 01:09:00,43.5,36.9,30.23,North,4,3.0,4.0,77,0.00,,,0.00,meteohub,2013-01-28 09:09:00,
2013-01-28 01:14:00,43.5,37.0,30.23,NNW,339,4.0,5.0,78,0.00,,,0.00,meteohub,2013-01-28 09:14:00,
2013-01-28 01:19:00,44.1,37.4,30.23,North,349,3.0,5.0,77,0.00,,,0.00,meteohub,2013-01-28 09:19:00,
2013-01-28 01:24:00,44.2,37.6,30.23,North,4,3.0,6.0,77,0.00,,,0.00,meteohub,2013-01-28 09:24:00,
2013-01-28 01:29:00,44.2,37.6,30.23,North,4,4.0,6.0,77,0.00,,,0.00,meteohub,2013-01-28 09:29:00,
2013-01-28 01:34:00,44.2,37.6,30.23,NNE,25,0.0,6.0,77,0.00,,,0.00,meteohub,2013-01-28 09:34:00,
2013-01-28 01:39:00,44.2,37.6,30.23,NNE,23,3.0,7.0,77,0.00,,,0.00,meteohub,2013-01-28 09:39:00,
2013-01-28 01:44:00,44.2,37.6,30.23,NNE,25,3.0,7.0,77,0.00,,,0.00,meteohub,2013-01-28 09:44:00,
2013-01-28 01:49:00,44.2,37.6,30.23,NW,320,4.0,7.0,77,0.00,,,0.00,meteohub,2013-01-28 09:49:00,
2013-01-28 01:55:00,44.4,37.6,30.23,NNW,334,2.0,7.0,77,0.00,,,0.00,meteohub,2013-01-28 09:55:00,
2013-01-28 02:00:00,44.4,37.4,30.23,NNW,332,1.0,8.0,76,0.00,,,0.00,meteohub,2013-01-28 10:00:00,
2013-01-28 02:05:00,44.4,37.4,30.24,NNW,335,4.0,8.0,76,0.00,,,0.00,meteohub,2013-01-28 10:05:00,
2013-01-28 02:10:00,44.4,37.4,30.24,NNW,338,3.0,8.0,76,0.00,,,0.00,meteohub,2013-01-28 10:10:00,
2013-01-28 02:15:00,44.4,37.4,30.24,North,350,5.0,7.0,76,0.00,,,0.00,meteohub,2013-01-28 10:15:00,
2013-01-28 02:20:00,44.4,37.4,30.23,NNW,346,6.0,6.0,76,0.00,,,0.00,meteohub,2013-01-28 10:20:00,
2013-01-28 02:25:00,44.4,37.4,30.23,North,8,3.0,6.0,76,0.00,,,0.00,meteohub,2013-01-28 10:25:00,
2013-01-28 02:30:00,44.4,37.4,30.23,North,359,4.0,6.0,76,0.00,,,0.00,meteohub,2013-01-28 10:30:00,
2013-01-28 02:35:00,44.4,37.4,30.24,North,9,4.0,6.0,76,0.00,,,0.00,meteohub,2013-01-28 10:35:00,
2013-01-28 02:40:00,44.4,37.4,30.24,North,350,6.0,6.0,76,0.00,,,0.00,meteohub,2013-01-28 10:40:00,
2013-01-28 02:45:00,44.2,37.2,30.24,North,4,3.0,6.0,76,0.00,,,0.00,meteohub,2013-01-28 10:45:00,
2013-01-28 02:50:00,44.2,37.2,30.24,North,4,0.0,7.0,76,0.00,,,0.00,meteohub,2013-01-28 10:50:00,
2013-01-28 02:55:00,44.2,37.2,30.23,North,4,2.0,7.0,76,0.00,,,0.00,meteohub,2013-01-28 10:55:00,
2013-01-28 03:00:00,44.1,37.0,30.23,North,8,0.0,4.0,76,0.00,,,0.00,meteohub,2013-01-28 11:00:00,
2013-01-28 03:05:00,44.1,37.0,30.24,North,4,1.0,4.0,76,0.00,,,0.00,meteohub,2013-01-28 11:05:00,
2013-01-28 03:10:00,43.9,36.9,30.24,North,4,0.0,3.0,76,0.00,,,0.00,meteohub,2013-01-28 11:10:00,
2013-01-28 03:15:00,43.9,36.9,30.24,North,4,1.0,3.0,76,0.00,,,0.00,meteohub,2013-01-28 11:15:00,
2013-01-28 03:21:00,43.9,37.2,30.24,North,8,0.0,2.0,77,0.00,,,0.00,meteohub,2013-01-28 11:21:00,
2013-01-28 03:26:00,43.7,37.0,30.24,North,4,1.0,2.0,77,0.00,,,0.00,meteohub,2013-01-28 11:26:00,
2013-01-28 03:31:00,43.9,37.2,30.23,North,9,2.0,3.0,77,0.00,,,0.00,meteohub,2013-01-28 11:31:00,
2013-01-28 03:36:00,43.9,36.9,30.23,North,8,3.0,4.0,76,0.00,,,0.00,meteohub,2013-01-28 11:36:00,
2013-01-28 03:41:00,43.7,36.7,30.23,NE,37,3.0,5.0,76,0.00,,,0.00,meteohub,2013-01-28 11:41:00,
2013-01-28 03:46:00,43.9,36.9,30.23,ENE,60,4.0,5.0,76,0.00,,,0.00,meteohub,2013-01-28 11:46:00,
2013-01-28 03:51:00,44.1,36.7,30.23,ENE,60,3.0,7.0,75,0.00,,,0.00,meteohub,2013-01-28 11:51:00,
2013-01-28 03:56:00,44.2,36.9,30.23,ENE,68,5.0,7.0,75,0.00,,,0.00,meteohub,2013-01-28 11:56:00,
2013-01-28 04:01:00,44.1,36.3,30.23,NE,36,1.0,7.0,74,0.00,,,0.00,meteohub,2013-01-28 12:01:00,
2013-01-28 04:06:00,44.1,36.7,30.23,NE,38,2.0,7.0,75,0.00,,,0.00,meteohub,2013-01-28 12:06:00,
2013-01-28 04:11:00,43.9,36.5,30.23,NE,40,1.0,7.0,75,0.00,,,0.00,meteohub,2013-01-28 12:11:00,
2013-01-28 04:16:00,43.9,36.9,30.23,NE,42,1.0,6.0,76,0.00,,,0.00,meteohub,2013-01-28 12:16:00,
2013-01-28 04:21:00,43.7,36.7,30.23,NE,42,0.0,4.0,76,0.00,,,0.00,meteohub,2013-01-28 12:21:00,
2013-01-28 04:26:00,43.5,36.9,30.23,North,8,1.0,4.0,77,0.00,,,0.00,meteohub,2013-01-28 12:26:00,
2013-01-28 04:31:00,43.5,36.9,30.23,North,4,0.0,3.0,77,0.00,,,0.00,meteohub,2013-01-28 12:31:00,
2013-01-28 04:36:00,43.5,36.5,30.23,WNW,289,3.0,3.0,76,0.00,,,0.00,meteohub,2013-01-28 12:36:00,
2013-01-28 04:41:00,43.3,36.7,30.23,WNW,289,0.0,4.0,77,0.00,,,0.00,meteohub,2013-01-28 12:41:00,
2013-01-28 04:46:00,43.5,36.9,30.23,WNW,288,0.0,4.0,77,0.00,,,0.00,meteohub,2013-01-28 12:46:00,
2013-01-28 04:51:00,43.5,36.9,30.23,WNW,287,0.0,4.0,77,0.00,,,0.00,meteohub,2013-01-28 12:51:00,
2013-01-28 04:57:00,43.3,36.7,30.23,WNW,289,0.0,1.0,77,0.00,,,0.00,meteohub,2013-01-28 12:57:00,
2013-01-28 05:02:00,43.3,36.7,30.23,WNW,289,0.0,1.0,77,0.00,,,0.00,meteohub,2013-01-28 13:02:00,
2013-01-28 05:07:00,43.2,36.7,30.23,West,259,3.0,4.0,78,0.00,,,0.00,meteohub,2013-01-28 13:07:00,
2013-01-28 05:12:00,43.3,36.9,30.22,WSW,258,1.0,4.0,78,0.00,,,0.00,meteohub,2013-01-28 13:12:00,
2013-01-28 05:17:00,43.3,36.9,30.23,West,259,1.0,4.0,78,0.00,,,0.00,meteohub,2013-01-28 13:17:00,
2013-01-28 05:22:00,43.3,36.9,30.22,SE,145,3.0,4.0,78,0.00,,,0.00,meteohub,2013-01-28 13:22:00,
2013-01-28 05:27:00,43.9,37.2,30.22,SE,137,2.0,4.0,77,0.00,,,0.00,meteohub,2013-01-28 13:27:00,
2013-01-28 05:32:00,43.9,37.2,30.22,SE,145,4.0,4.0,77,0.00,,,0.00,meteohub,2013-01-28 13:32:00,
2013-01-28 05:37:00,44.2,37.2,30.22,South,174,2.0,7.0,76,0.00,,,0.00,meteohub,2013-01-28 13:37:00,
2013-01-28 05:42:00,44.2,37.2,30.22,ESE,122,2.0,7.0,76,0.00,,,0.00,meteohub,2013-01-28 13:42:00,
2013-01-28 05:47:00,43.5,36.5,30.22,ESE,103,3.0,7.0,76,0.00,,,0.00,meteohub,2013-01-28 13:47:00,
2013-01-28 05:52:00,43.2,36.7,30.22,ESE,104,4.0,5.0,78,0.00,,,0.00,meteohub,2013-01-28 13:52:00,
2013-01-28 05:57:00,42.8,36.5,30.22,ESE,121,5.0,5.0,78,0.00,,,0.00,meteohub,2013-01-28 13:57:00,
2013-01-28 06:02:00,42.8,36.5,30.22,SE,125,2.0,5.0,78,0.00,,,0.00,meteohub,2013-01-28 14:02:00,
2013-01-28 06:07:00,43.2,36.7,30.22,ESE,112,5.0,6.0,78,0.00,,,0.00,meteohub,2013-01-28 14:07:00,
2013-01-28 06:12:00,43.5,36.9,30.22,ESE,112,2.0,9.0,77,0.00,,,0.00,meteohub,2013-01-28 14:12:00,
2013-01-28 06:17:00,43.2,36.5,30.23,ESE,110,0.0,9.0,77,0.00,,,0.00,meteohub,2013-01-28 14:17:00,
2013-01-28 06:22:00,43.0,36.7,30.23,ESE,111,0.0,9.0,78,0.00,,,0.00,meteohub,2013-01-28 14:22:00,
2013-01-28 06:27:00,42.6,36.3,30.23,ESE,110,0.0,4.0,78,0.00,,,0.00,meteohub,2013-01-28 14:27:00,
2013-01-28 06:32:00,42.6,36.5,30.22,ESE,108,0.0,2.0,79,0.00,,,0.00,meteohub,2013-01-28 14:32:00,
2013-01-28 06:37:00,42.4,36.3,30.22,ESE,110,0.0,2.0,79,0.00,,,0.00,meteohub,2013-01-28 14:37:00,
2013-01-28 06:43:00,42.3,36.1,30.23,ESE,109,1.0,1.0,79,0.00,,,0.00,meteohub,2013-01-28 14:43:00,
2013-01-28 06:48:00,42.3,36.5,30.23,ESE,109,2.0,2.0,80,0.00,,,0.00,meteohub,2013-01-28 14:48:00,
2013-01-28 06:53:00,42.1,36.7,30.23,ESE,108,0.0,2.0,81,0.00,,,0.00,meteohub,2013-01-28 14:53:00,
2013-01-28 06:58:00,42.1,36.7,30.23,ESE,111,0.0,2.0,81,0.00,,,0.00,meteohub,2013-01-28 14:58:00,
2013-01-28 07:03:00,41.7,36.3,30.24,ESE,110,0.0,2.0,81,0.00,,,0.00,meteohub,2013-01-28 15:03:00,
2013-01-28 07:08:00,41.7,36.7,30.24,ESE,110,0.0,2.0,82,0.00,,,0.00,meteohub,2013-01-28 15:08:00,
2013-01-28 07:13:00,41.7,36.7,30.24,ESE,110,0.0,2.0,82,0.00,,,0.00,meteohub,2013-01-28 15:13:00,
2013-01-28 07:18:00,41.9,37.0,30.24,ESE,110,1.0,2.0,83,0.00,,,0.00,meteohub,2013-01-28 15:18:00,
2013-01-28 07:23:00,42.1,37.2,30.24,ESE,112,2.0,2.0,83,0.00,,,0.00,meteohub,2013-01-28 15:23:00,
2013-01-28 07:28:00,42.3,37.4,30.24,NE,42,4.0,4.0,83,0.00,,,0.00,meteohub,2013-01-28 15:28:00,
2013-01-28 07:33:00,42.3,37.4,30.25,NNE,21,3.0,5.0,83,0.00,,,0.00,meteohub,2013-01-28 15:33:00,
2013-01-28 07:38:00,42.4,37.6,30.25,NNE,17,3.0,7.0,83,0.00,,,0.00,meteohub,2013-01-28 15:38:00,
2013-01-28 07:43:00,42.4,37.6,30.25,NNE,29,2.0,7.0,83,0.00,,,0.00,meteohub,2013-01-28 15:43:00,
2013-01-28 07:48:00,42.6,37.8,30.25,NE,34,3.0,8.0,83,0.00,,,0.00,meteohub,2013-01-28 15:48:00,
2013-01-28 07:53:00,42.8,38.3,30.25,NNE,27,3.0,8.0,84,0.00,,,0.00,meteohub,2013-01-28 15:53:00,
2013-01-28 07:59:00,43.0,38.5,30.25,NE,43,2.0,7.0,84,0.00,,,0.00,meteohub,2013-01-28 15:59:00,
2013-01-28 08:04:00,43.2,38.7,30.26,NE,37,1.0,7.0,84,0.00,,,0.00,meteohub,2013-01-28 16:04:00,
2013-01-28 08:09:00,43.3,38.8,30.26,NE,34,1.0,6.0,84,0.00,,,0.00,meteohub,2013-01-28 16:09:00,
2013-01-28 08:14:00,43.5,39.0,30.26,NE,39,2.0,6.0,84,0.00,,,0.00,meteohub,2013-01-28 16:14:00,
2013-01-28 08:19:00,43.9,39.4,30.26,NNE,24,2.0,5.0,84,0.00,,,0.00,meteohub,2013-01-28 16:19:00,
2013-01-28 08:24:00,44.2,39.7,30.26,NE,37,2.0,6.0,84,0.00,,,0.00,meteohub,2013-01-28 16:24:00,
2013-01-28 08:29:00,44.4,39.9,30.27,NNE,21,5.0,6.0,84,0.00,,,0.00,meteohub,2013-01-28 16:29:00,
2013-01-28 08:34:00,44.6,40.1,30.27,NNE,31,2.0,7.0,84,0.00,,,0.00,meteohub,2013-01-28 16:34:00,
2013-01-28 08:39:00,45.0,40.5,30.27,NNE,29,2.0,7.0,84,0.00,,,0.00,meteohub,2013-01-28 16:39:00,
2013-01-28 08:44:00,45.1,40.6,30.27,NNE,27,2.0,7.0,84,0.00,,,0.00,meteohub,2013-01-28 16:44:00,
2013-01-28 08:49:00,45.5,41.0,30.27,North,8,3.0,7.0,84,0.00,,,0.00,meteohub,2013-01-28 16:49:00,
2013-01-28 08:54:00,45.9,41.4,30.27,NNW,334,6.0,8.0,84,0.00,,,0.00,meteohub,2013-01-28 16:54:00,
2013-01-28 08:59:00,46.0,41.2,30.27,NNW,343,6.0,8.0,83,0.00,,,0.00,meteohub,2013-01-28 16:59:00,
2013-01-28 09:04:00,46.2,41.0,30.28,NNW,348,3.0,9.0,82,0.00,,,0.00,meteohub,2013-01-28 17:04:00,
2013-01-28 09:09:00,46.6,40.8,30.28,NNW,348,7.0,9.0,80,0.00,,,0.00,meteohub,2013-01-28 17:09:00,
2013-01-28 09:14:00,46.8,40.3,30.28,North,349,10.0,12.0,78,0.00,,,0.00,meteohub,2013-01-28 17:14:00,
2013-01-28 09:20:00,46.9,39.7,30.27,North,4,8.0,12.0,76,0.00,,,0.00,meteohub,2013-01-28 17:20:00,
2013-01-28 09:25:00,46.9,39.4,30.27,NNE,21,8.0,13.0,75,0.00,,,0.00,meteohub,2013-01-28 17:25:00,
2013-01-28 09:30:00,46.9,39.0,30.27,NNW,340,6.0,13.0,74,0.00,,,0.00,meteohub,2013-01-28 17:30:00,
2013-01-28 09:35:00,46.9,39.0,30.27,NNW,346,10.0,14.0,74,0.00,,,0.00,meteohub,2013-01-28 17:35:00,
2013-01-28 09:40:00,46.9,39.0,30.27,North,359,8.0,14.0,74,0.00,,,0.00,meteohub,2013-01-28 17:40:00,
2013-01-28 09:45:00,46.9,39.0,30.27,NNW,339,13.0,14.0,74,0.00,,,0.00,meteohub,2013-01-28 17:45:00,
2013-01-28 09:50:00,47.3,39.7,30.28,North,349,10.0,15.0,75,0.00,,,0.00,meteohub,2013-01-28 17:50:00,
2013-01-28 09:55:00,47.5,39.6,30.28,NNW,328,7.0,15.0,74,0.00,,,0.00,meteohub,2013-01-28 17:55:00,
2013-01-28 10:00:00,47.7,40.1,30.28,NNW,328,9.0,15.0,75,0.00,,,0.00,meteohub,2013-01-28 18:00:00,
2013-01-28 10:05:00,47.7,39.7,30.29,NNW,343,11.0,14.0,74,0.00,,,0.00,meteohub,2013-01-28 18:05:00,
2013-01-28 10:10:00,47.8,39.9,30.29,NW,320,12.0,17.0,74,0.00,,,0.00,meteohub,2013-01-28 18:10:00,
2013-01-28 10:15:00,48.0,39.7,30.29,North,4,8.0,17.0,73,0.00,,,0.00,meteohub,2013-01-28 18:15:00,
2013-01-28 10:20:00,48.4,39.7,30.30,North,359,10.0,17.0,72,0.00,,,0.00,meteohub,2013-01-28 18:20:00,
2013-01-28 10:25:00,48.6,39.6,30.30,NNW,337,9.0,16.0,71,0.00,,,0.00,meteohub,2013-01-28 18:25:00,
2013-01-28 10:30:00,48.6,39.6,30.30,North,349,10.0,16.0,71,0.00,,,0.00,meteohub,2013-01-28 18:30:00,
2013-01-28 10:35:00,48.9,39.9,30.30,NNW,330,13.0,16.0,71,0.00,,,0.00,meteohub,2013-01-28 18:35:00,
2013-01-28 10:40:00,49.3,40.3,30.30,NNW,328,11.0,15.0,71,0.00,,,0.00,meteohub,2013-01-28 18:40:00,
2013-01-28 10:45:00,49.5,40.1,30.30,NNW,342,8.0,15.0,70,0.00,,,0.00,meteohub,2013-01-28 18:45:00,
2013-01-28 10:50:00,49.6,40.3,30.30,NW,320,8.0,16.0,70,0.00,,,0.00,meteohub,2013-01-28 18:50:00,
2013-01-28 10:56:00,50.0,40.3,30.30,NNW,334,10.0,16.0,69,0.00,,,0.00,meteohub,2013-01-28 18:56:00,
2013-01-28 11:01:00,50.4,40.3,30.31,NNW,330,13.0,15.0,68,0.00,,,0.00,meteohub,2013-01-28 19:01:00,
2013-01-28 11:06:00,50.5,40.8,30.31,NW,322,7.0,14.0,69,0.00,,,0.00,meteohub,2013-01-28 19:06:00,
2013-01-28 11:11:00,51.1,40.8,30.31,North,8,14.0,14.0,68,0.00,,,0.00,meteohub,2013-01-28 19:11:00,
2013-01-28 11:16:00,50.9,40.6,30.30,North,359,10.0,15.0,68,0.00,,,0.00,meteohub,2013-01-28 19:16:00,
2013-01-28 11:21:00,51.3,40.6,30.30,North,359,7.0,15.0,67,0.00,,,0.00,meteohub,2013-01-28 19:21:00,
2013-01-28 11:26:00,51.3,40.3,30.30,NNW,348,13.0,15.0,66,0.00,,,0.00,meteohub,2013-01-28 19:26:00,
2013-01-28 11:31:00,51.3,40.3,30.30,North,359,5.0,16.0,66,0.00,,,0.00,meteohub,2013-01-28 19:31:00,
2013-01-28 11:36:00,51.6,40.6,30.30,North,8,13.0,16.0,66,0.00,,,0.00,meteohub,2013-01-28 19:36:00,
2013-01-28 11:41:00,51.6,39.9,30.30,NNE,19,10.0,16.0,64,0.00,,,0.00,meteohub,2013-01-28 19:41:00,
2013-01-28 11:46:00,52.3,40.5,30.30,NNW,343,15.0,15.0,64,0.00,,,0.00,meteohub,2013-01-28 19:46:00,
2013-01-28 11:51:00,52.3,39.7,30.30,NNW,335,9.0,15.0,62,0.00,,,0.00,meteohub,2013-01-28 19:51:00,
2013-01-28 11:56:00,52.5,39.4,30.30,NNW,345,9.0,15.0,61,0.00,,,0.00,meteohub,2013-01-28 19:56:00,
2013-01-28 12:01:00,53.1,39.9,30.30,North,359,14.0,15.0,61,0.00,,,0.00,meteohub,2013-01-28 20:01:00,
2013-01-28 12:06:00,53.1,39.2,30.29,WNW,295,14.0,15.0,59,0.00,,,0.00,meteohub,2013-01-28 20:06:00,
2013-01-28 12:11:00,53.4,39.9,30.29,NW,308,7.0,16.0,60,0.00,,,0.00,meteohub,2013-01-28 20:11:00,
2013-01-28 12:16:00,53.4,39.4,30.29,NNW,339,11.0,16.0,59,0.00,,,0.00,meteohub,2013-01-28 20:16:00,
2013-01-28 12:21:00,53.2,39.7,30.29,NNW,332,9.0,16.0,60,0.00,,,0.00,meteohub,2013-01-28 20:21:00,
2013-01-28 12:26:00,53.8,39.7,30.29,NW,315,7.0,16.0,59,0.00,,,0.00,meteohub,2013-01-28 20:26:00,
2013-01-28 12:31:00,54.0,39.9,30.29,NW,324,7.0,14.0,59,0.00,,,0.00,meteohub,2013-01-28 20:31:00,
2013-01-28 12:36:00,54.1,40.1,30.29,NW,320,11.0,14.0,59,0.00,,,0.00,meteohub,2013-01-28 20:36:00,
2013-01-28 12:41:00,54.0,39.6,30.29,North,359,13.0,14.0,58,0.00,,,0.00,meteohub,2013-01-28 20:41:00,
2013-01-28 12:46:00,54.1,40.1,30.29,NW,324,10.0,14.0,59,0.00,,,0.00,meteohub,2013-01-28 20:46:00,
2013-01-28 12:52:00,54.3,39.9,30.29,NNW,331,12.0,15.0,58,0.00,,,0.00,meteohub,2013-01-28 20:52:00,
2013-01-28 12:57:00,54.3,39.4,30.29,NNW,335,4.0,15.0,57,0.00,,,0.00,meteohub,2013-01-28 20:57:00,
2013-01-28 13:02:00,54.7,39.4,30.28,NNW,332,10.0,15.0,56,0.00,,,0.00,meteohub,2013-01-28 21:02:00,
2013-01-28 13:07:00,54.9,39.0,30.28,NNW,339,10.0,14.0,55,0.00,,,0.00,meteohub,2013-01-28 21:07:00,
2013-01-28 13:12:00,55.0,39.2,30.28,NW,308,11.0,16.0,55,0.00,,,0.00,meteohub,2013-01-28 21:12:00,
2013-01-28 13:17:00,55.2,39.4,30.28,NW,312,7.0,16.0,55,0.00,,,0.00,meteohub,2013-01-28 21:17:00,
2013-01-28 13:22:00,55.8,39.4,30.27,WNW,291,10.0,14.0,54,0.00,,,0.00,meteohub,2013-01-28 21:22:00,
2013-01-28 13:27:00,55.8,39.4,30.27,North,359,5.0,14.0,54,0.00,,,0.00,meteohub,2013-01-28 21:27:00,
2013-01-28 13:32:00,55.8,38.8,30.27,NNW,343,9.0,13.0,53,0.00,,,0.00,meteohub,2013-01-28 21:32:00,
2013-01-28 13:37:00,55.9,39.6,30.27,NNW,338,9.0,13.0,54,0.00,,,0.00,meteohub,2013-01-28 21:37:00,
2013-01-28 13:42:00,55.9,38.5,30.27,North,359,4.0,14.0,52,0.00,,,0.00,meteohub,2013-01-28 21:42:00,
2013-01-28 13:47:00,56.1,39.2,30.27,NW,324,8.0,14.0,53,0.00,,,0.00,meteohub,2013-01-28 21:47:00,
2013-01-28 13:52:00,56.5,39.0,30.27,NW,307,11.0,14.0,52,0.00,,,0.00,meteohub,2013-01-28 21:52:00,
2013-01-28 13:57:00,56.7,39.2,30.27,NNW,348,7.0,14.0,52,0.00,,,0.00,meteohub,2013-01-28 21:57:00,
2013-01-28 14:02:00,57.4,39.9,30.27,NW,322,6.0,14.0,52,0.00,,,0.00,meteohub,2013-01-28 22:02:00,
2013-01-28 14:07:00,57.6,39.0,30.27,WNW,299,8.0,14.0,50,0.00,,,0.00,meteohub,2013-01-28 22:07:00,
2013-01-28 14:12:00,57.0,39.0,30.27,NW,323,11.0,16.0,51,0.00,,,0.00,meteohub,2013-01-28 22:12:00,
2013-01-28 14:17:00,56.8,38.8,30.27,NW,316,4.0,17.0,51,0.00,,,0.00,meteohub,2013-01-28 22:17:00,
2013-01-28 14:23:00,57.0,39.0,30.27,NW,304,10.0,17.0,51,0.00,,,0.00,meteohub,2013-01-28 22:23:00,
2013-01-28 14:28:00,57.0,39.0,30.27,WNW,293,6.0,16.0,51,0.00,,,0.00,meteohub,2013-01-28 22:28:00,
2013-01-28 14:33:00,57.6,40.1,30.27,NW,318,6.0,16.0,52,0.00,,,0.00,meteohub,2013-01-28 22:33:00,
2013-01-28 14:38:00,57.9,39.4,30.27,NNW,334,12.0,16.0,50,0.00,,,0.00,meteohub,2013-01-28 22:38:00,
2013-01-28 14:43:00,57.4,38.8,30.26,WNW,288,11.0,17.0,50,0.00,,,0.00,meteohub,2013-01-28 22:43:00,
2013-01-28 14:48:00,57.4,39.4,30.27,NW,306,13.0,18.0,51,0.00,,,0.00,meteohub,2013-01-28 22:48:00,
2013-01-28 14:53:00,57.6,41.0,30.26,WNW,284,3.0,18.0,54,0.00,,,0.00,meteohub,2013-01-28 22:53:00,
2013-01-28 14:58:00,57.9,42.3,30.26,West,272,8.0,15.0,56,0.00,,,0.00,meteohub,2013-01-28 22:58:00,
2013-01-28 15:03:00,56.8,42.6,30.27,West,260,15.0,15.0,59,0.00,,,0.00,meteohub,2013-01-28 23:03:00,
2013-01-28 15:08:00,56.8,42.6,30.27,WNW,296,8.0,15.0,59,0.00,,,0.00,meteohub,2013-01-28 23:08:00,
2013-01-28 15:13:00,57.4,43.2,30.26,West,278,10.0,16.0,59,0.00,,,0.00,meteohub,2013-01-28 23:13:00,
2013-01-28 15:18:00,56.8,42.6,30.27,West,279,13.0,16.0,59,0.00,,,0.00,meteohub,2013-01-28 23:18:00,
2013-01-28 15:23:00,56.7,43.0,30.27,WNW,295,11.0,17.0,60,0.00,,,0.00,meteohub,2013-01-28 23:23:00,
2013-01-28 15:28:00,56.5,42.8,30.27,WNW,295,11.0,18.0,60,0.00,,,0.00,meteohub,2013-01-28 23:28:00,
2013-01-28 15:33:00,56.7,43.0,30.27,NW,325,14.0,18.0,60,0.00,,,0.00,meteohub,2013-01-28 23:33:00,
2013-01-28 15:38:00,56.7,42.4,30.27,NW,305,13.0,17.0,59,0.00,,,0.00,meteohub,2013-01-28 23:38:00,
2013-01-28 15:43:00,56.1,42.4,30.27,NW,322,10.0,15.0,60,0.00,,,0.00,meteohub,2013-01-28 23:43:00,
2013-01-28 15:48:00,55.9,42.6,30.27,NW,312,8.0,17.0,61,0.00,,,0.00,meteohub,2013-01-28 23:48:00,
2013-01-28 15:53:00,55.9,43.2,30.27,North,359,8.0,17.0,62,0.00,,,0.00,meteohub,2013-01-28 23:53:00,
2013-01-28 15:58:00,55.8,43.3,30.27,WNW,297,11.0,17.0,63,0.00,,,0.00,meteohub,2013-01-28 23:58:00,
2013-01-28 16:03:00,55.4,43.3,30.27,WNW,284,6.0,16.0,64,0.00,,,0.00,meteohub,2013-01-29 00:03:00,
2013-01-28 16:08:00,55.2,43.3,30.27,WNW,297,8.0,16.0,64,0.00,,,0.00,meteohub,2013-01-29 00:08:00,
2013-01-28 16:13:00,55.0,43.2,30.27,WNW,290,8.0,16.0,64,0.00,,,0.00,meteohub,2013-01-29 00:13:00,
2013-01-28 16:19:00,55.2,43.3,30.27,WNW,283,5.0,16.0,64,0.00,,,0.00,meteohub,2013-01-29 00:19:00,
2013-01-28 16:24:00,55.4,43.3,30.27,WNW,286,7.0,16.0,64,0.00,,,0.00,meteohub,2013-01-29 00:24:00,
2013-01-28 16:29:00,55.4,43.3,30.27,West,280,6.0,15.0,64,0.00,,,0.00,meteohub,2013-01-29 00:29:00,
2013-01-28 16:34:00,55.2,43.7,30.27,WNW,289,9.0,13.0,65,0.00,,,0.00,meteohub,2013-01-29 00:34:00,
2013-01-28 16:39:00,54.7,43.5,30.28,West,280,9.0,13.0,66,0.00,,,0.00,meteohub,2013-01-29 00:39:00,
2013-01-28 16:44:00,54.5,43.3,30.28,West,277,11.0,15.0,66,0.00,,,0.00,meteohub,2013-01-29 00:44:00,
2013-01-28 16:49:00,54.3,43.2,30.28,West,279,10.0,15.0,66,0.00,,,0.00,meteohub,2013-01-29 00:49:00,
2013-01-28 16:54:00,54.1,43.3,30.28,West,277,9.0,15.0,67,0.00,,,0.00,meteohub,2013-01-29 00:54:00,
2013-01-28 16:59:00,53.8,43.5,30.28,North,359,13.0,14.0,68,0.00,,,0.00,meteohub,2013-01-29 00:59:00,
2013-01-28 17:04:00,53.2,43.0,30.28,WNW,283,12.0,17.0,68,0.00,,,0.00,meteohub,2013-01-29 01:04:00,
2013-01-28 17:09:00,53.2,43.3,30.28,West,281,11.0,17.0,69,0.00,,,0.00,meteohub,2013-01-29 01:09:00,
2013-01-28 17:14:00,53.1,43.5,30.28,West,275,10.0,17.0,70,0.00,,,0.00,meteohub,2013-01-29 01:14:00,
2013-01-28 17:19:00,52.7,43.2,30.28,WNW,283,9.0,15.0,70,0.00,,,0.00,meteohub,2013-01-29 01:19:00,
2013-01-28 17:24:00,52.5,43.3,30.28,WNW,291,9.0,14.0,71,0.00,,,0.00,meteohub,2013-01-29 01:24:00,
2013-01-28 17:29:00,52.3,43.2,30.29,WNW,283,8.0,15.0,71,0.00,,,0.00,meteohub,2013-01-29 01:29:00,
2013-01-28 17:34:00,52.3,43.5,30.29,WNW,292,8.0,15.0,72,0.00,,,0.00,meteohub,2013-01-29 01:34:00,
2013-01-28 17:39:00,52.2,43.3,30.29,NW,315,8.0,15.0,72,0.00,,,0.00,meteohub,2013-01-29 01:39:00,
2013-01-28 17:44:00,52.2,43.3,30.29,NW,310,6.0,12.0,72,0.00,,,0.00,meteohub,2013-01-29 01:44:00,
2013-01-28 17:49:00,52.0,43.5,30.29,WNW,288,8.0,12.0,73,0.00,,,0.00,meteohub,2013-01-29 01:49:00,
2013-01-28 17:54:00,51.8,43.3,30.29,WNW,299,4.0,12.0,73,0.00,,,0.00,meteohub,2013-01-29 01:54:00,
2013-01-28 17:59:00,51.6,43.3,30.30,WNW,288,7.0,12.0,73,0.00,,,0.00,meteohub,2013-01-29 01:59:00,
2013-01-28 18:04:00,51.4,43.2,30.30,West,280,7.0,12.0,73,0.00,,,0.00,meteohub,2013-01-29 02:04:00,
2013-01-28 18:09:00,51.4,43.5,30.30,WNW,290,9.0,14.0,74,0.00,,,0.00,meteohub,2013-01-29 02:09:00,
2013-01-28 18:14:00,51.4,43.5,30.30,WNW,298,5.0,14.0,74,0.00,,,0.00,meteohub,2013-01-29 02:14:00,
2013-01-28 18:20:00,51.3,43.3,30.30,WNW,284,6.0,14.0,74,0.00,,,0.00,meteohub,2013-01-29 02:20:00,
2013-01-28 18:25:00,51.3,43.3,30.31,WNW,297,8.0,13.0,74,0.00,,,0.00,meteohub,2013-01-29 02:25:00,
2013-01-28 18:30:00,51.3,43.3,30.31,WNW,301,2.0,13.0,74,0.00,,,0.00,meteohub,2013-01-29 02:30:00,
2013-01-28 18:35:00,51.3,43.3,30.31,NW,320,6.0,10.0,74,0.00,,,0.00,meteohub,2013-01-29 02:35:00,
2013-01-28 18:40:00,51.3,43.0,30.31,WNW,303,6.0,10.0,73,0.00,,,0.00,meteohub,2013-01-29 02:40:00,
2013-01-28 18:45:00,51.3,43.0,30.31,WNW,287,5.0,9.0,73,0.00,,,0.00,meteohub,2013-01-29 02:45:00,
2013-01-28 18:50:00,51.1,42.8,30.31,WNW,292,3.0,9.0,73,0.00,,,0.00,meteohub,2013-01-29 02:50:00,
2013-01-28 18:55:00,50.7,42.8,30.31,WNW,283,3.0,9.0,74,0.00,,,0.00,meteohub,2013-01-29 02:55:00,
2013-01-28 19:00:00,50.5,42.6,30.31,WNW,299,2.0,9.0,74,0.00,,,0.00,meteohub,2013-01-29 03:00:00,
2013-01-28 19:05:00,50.7,42.8,30.32,West,280,4.0,7.0,74,0.00,,,0.00,meteohub,2013-01-29 03:05:00,
2013-01-28 19:10:00,50.5,43.0,30.32,West,277,4.0,7.0,75,0.00,,,0.00,meteohub,2013-01-29 03:10:00,
2013-01-28 19:15:00,50.2,42.6,30.32,WNW,292,3.0,7.0,75,0.00,,,0.00,meteohub,2013-01-29 03:15:00,
2013-01-28 19:20:00,50.2,43.0,30.32,WNW,285,2.0,7.0,76,0.00,,,0.00,meteohub,2013-01-29 03:20:00,
2013-01-28 19:25:00,50.2,43.0,30.32,WNW,287,4.0,8.0,76,0.00,,,0.00,meteohub,2013-01-29 03:25:00,
2013-01-28 19:30:00,50.0,42.8,30.32,WNW,298,3.0,8.0,76,0.00,,,0.00,meteohub,2013-01-29 03:30:00,
2013-01-28 19:35:00,50.0,42.8,30.32,NW,306,3.0,8.0,76,0.00,,,0.00,meteohub,2013-01-29 03:35:00,
2013-01-28 19:40:00,49.8,42.6,30.32,WNW,302,0.0,8.0,76,0.00,,,0.00,meteohub,2013-01-29 03:40:00,
2013-01-28 19:45:00,49.8,43.0,30.32,WNW,303,0.0,8.0,77,0.00,,,0.00,meteohub,2013-01-29 03:45:00,
2013-01-28 19:50:00,49.8,43.0,30.32,WNW,303,0.0,8.0,77,0.00,,,0.00,meteohub,2013-01-29 03:50:00,
2013-01-28 19:55:00,49.6,42.8,30.33,WNW,301,2.0,3.0,77,0.00,,,0.00,meteohub,2013-01-29 03:55:00,
2013-01-28 20:00:00,49.5,42.6,30.33,WNW,289,3.0,6.0,77,0.00,,,0.00,meteohub,2013-01-29 04:00:00,
2013-01-28 20:05:00,49.5,42.6,30.33,WNW,287,3.0,8.0,77,0.00,,,0.00,meteohub,2013-01-29 04:05:00,
2013-01-28 20:10:00,49.5,42.6,30.33,WNW,291,0.0,8.0,77,0.00,,,0.00,meteohub,2013-01-29 04:10:00,
2013-01-28 20:15:00,48.9,42.1,30.32,WNW,293,1.0,8.0,77,0.00,,,0.00,meteohub,2013-01-29 04:15:00,
2013-01-28 20:20:00,48.7,42.3,30.32,WNW,293,1.0,6.0,78,0.00,,,0.00,meteohub,2013-01-29 04:20:00,
2013-01-28 20:26:00,48.6,42.1,30.33,WNW,294,0.0,3.0,78,0.00,,,0.00,meteohub,2013-01-29 04:26:00,
2013-01-28 20:31:00,48.4,41.9,30.32,WNW,294,0.0,3.0,78,0.00,,,0.00,meteohub,2013-01-29 04:31:00,
2013-01-28 20:36:00,48.4,42.3,30.33,WNW,294,0.0,2.0,79,0.00,,,0.00,meteohub,2013-01-29 04:36:00,
2013-01-28 20:41:00,48.7,41.9,30.33,NNW,341,1.0,9.0,77,0.00,,,0.00,meteohub,2013-01-29 04:41:00,
2013-01-28 20:46:00,49.3,41.4,30.33,NNW,331,2.0,9.0,74,0.00,,,0.00,meteohub,2013-01-29 04:46:00,
2013-01-28 20:51:00,49.6,41.4,30.34,WNW,300,2.0,9.0,73,0.00,,,0.00,meteohub,2013-01-29 04:51:00,
2013-01-28 20:56:00,49.6,41.4,30.34,WNW,300,1.0,7.0,73,0.00,,,0.00,meteohub,2013-01-29 04:56:00,
2013-01-28 21:00:00,49.3,41.4,30.34,WNW,301,3.0,7.0,74,0.00,,,0.00,meteohub,2013-01-29 05:00:00,
2013-01-28 21:03:00,49.3,41.4,30.34,WNW,301,2.0,7.0,74,0.00,,,0.00,meteohub,2013-01-29 05:03:00,
2013-01-28 21:04:00,49.1,41.2,30.34,NW,317,3.0,7.0,74,0.00,,,0.00,meteohub,2013-01-29 05:04:00,
2013-01-28 21:09:00,49.3,41.0,30.34,NW,310,4.0,4.0,73,0.00,,,0.00,meteohub,2013-01-29 05:09:00,
2013-01-28 21:14:00,49.5,41.2,30.34,NW,318,4.0,6.0,73,0.00,,,0.00,meteohub,2013-01-29 05:14:00,
2013-01-28 21:19:00,49.6,41.0,30.34,NW,311,4.0,7.0,72,0.00,,,0.00,meteohub,2013-01-29 05:19:00,
2013-01-28 21:24:00,49.6,41.0,30.34,NW,305,3.0,10.0,72,0.00,,,0.00,meteohub,2013-01-29 05:24:00,
2013-01-28 21:29:00,49.6,41.0,30.33,WNW,299,5.0,10.0,72,0.00,,,0.00,meteohub,2013-01-29 05:29:00,
2013-01-28 21:34:00,49.6,41.0,30.33,NW,310,5.0,10.0,72,0.00,,,0.00,meteohub,2013-01-29 05:34:00,
2013-01-28 21:39:00,49.6,41.0,30.33,WNW,299,7.0,9.0,72,0.00,,,0.00,meteohub,2013-01-29 05:39:00,
2013-01-28 21:44:00,49.5,40.5,30.33,NW,316,3.0,9.0,71,0.00,,,0.00,meteohub,2013-01-29 05:44:00,
2013-01-28 21:49:00,49.5,40.5,30.33,NNW,330,7.0,9.0,71,0.00,,,0.00,meteohub,2013-01-29 05:49:00,
2013-01-28 21:54:00,49.3,40.3,30.33,NW,313,2.0,9.0,71,0.00,,,0.00,meteohub,2013-01-29 05:54:00,
2013-01-28 21:59:00,49.3,40.3,30.33,WNW,292,5.0,9.0,71,0.00,,,0.00,meteohub,2013-01-29 05:59:00,
2013-01-28 22:04:00,49.3,40.3,30.33,NW,322,2.0,9.0,71,0.00,,,0.00,meteohub,2013-01-29 06:04:00,
2013-01-28 22:09:00,48.9,40.3,30.33,NW,317,1.0,8.0,72,0.00,,,0.00,meteohub,2013-01-29 06:09:00,
2013-01-28 22:14:00,48.7,40.1,30.33,NW,322,2.0,8.0,72,0.00,,,0.00,meteohub,2013-01-29 06:14:00,
2013-01-28 22:19:00,48.7,40.1,30.33,NW,320,1.0,6.0,72,0.00,,,0.00,meteohub,2013-01-29 06:19:00,
2013-01-28 22:24:00,48.6,39.9,30.33,NW,316,1.0,6.0,72,0.00,,,0.00,meteohub,2013-01-29 06:24:00,
2013-01-28 22:29:00,48.6,39.9,30.34,NW,310,6.0,6.0,72,0.00,,,0.00,meteohub,2013-01-29 06:29:00,
2013-01-28 22:34:00,48.6,39.9,30.33,NW,312,1.0,7.0,72,0.00,,,0.00,meteohub,2013-01-29 06:34:00,
2013-01-28 22:39:00,48.6,40.3,30.34,NW,313,2.0,7.0,73,0.00,,,0.00,meteohub,2013-01-29 06:39:00,
2013-01-28 22:44:00,48.6,40.3,30.34,NW,314,2.0,7.0,73,0.00,,,0.00,meteohub,2013-01-29 06:44:00,
2013-01-28 22:49:00,48.6,40.3,30.33,NW,317,1.0,6.0,73,0.00,,,0.00,meteohub,2013-01-29 06:49:00,
2013-01-28 22:54:00,48.4,40.1,30.33,NNW,329,3.0,6.0,73,0.00,,,0.00,meteohub,2013-01-29 06:54:00,
2013-01-28 22:59:00,48.4,40.1,30.34,NNW,346,4.0,8.0,73,0.00,,,0.00,meteohub,2013-01-29 06:59:00,
2013-01-28 23:04:00,48.2,40.3,30.34,NNW,342,4.0,8.0,74,0.00,,,0.00,meteohub,2013-01-29 07:04:00,
2013-01-28 23:09:00,48.2,40.3,30.34,NNW,335,5.0,8.0,74,0.00,,,0.00,meteohub,2013-01-29 07:09:00,
2013-01-28 23:14:00,48.2,40.3,30.34,NNW,327,3.0,8.0,74,0.00,,,0.00,meteohub,2013-01-29 07:14:00,
2013-01-28 23:19:00,48.2,40.3,30.34,NW,326,1.0,8.0,74,0.00,,,0.00,meteohub,2013-01-29 07:19:00,
2013-01-28 23:25:00,48.2,40.3,30.34,NW,319,4.0,6.0,74,0.00,,,0.00,meteohub,2013-01-29 07:25:00,
2013-01-28 23:30:00,48.0,40.1,30.34,NNW,338,5.0,6.0,74,0.00,,,0.00,meteohub,2013-01-29 07:30:00,
2013-01-28 23:35:00,48.0,40.1,30.34,NNW,334,0.0,8.0,74,0.00,,,0.00,meteohub,2013-01-29 07:35:00,
2013-01-28 23:40:00,48.0,40.1,30.35,NNW,335,5.0,8.0,74,0.00,,,0.00,meteohub,2013-01-29 07:40:00,
2013-01-28 23:45:00,48.0,40.1,30.34,NNW,336,3.0,8.0,74,0.00,,,0.00,meteohub,2013-01-29 07:45:00,
2013-01-28 23:50:00,47.8,39.9,30.34,NNW,335,3.0,6.0,74,0.00,,,0.00,meteohub,2013-01-29 07:50:00,
2013-01-28 23:55:00,47.8,39.9,30.34,NNW,335,0.0,6.0,74,0.00,,,0.00,meteohub,2013-01-29 07:55:00,